Weather Roundup
Issued by NWS Chicago, IL

Home | Current Version | Previous Version | Text Only | Print | Product List | Glossary On
Versions: 1 2 3 4 5 6 7 8 9 10 11 12 13 14 15 16 17 18 19 20 21 22 23 24 25 26 27 28 29 30 31 32 33 34 35 36 37 38 39 40 41 42 43 44 45 46 47 48 49 50
000
NZUS59 KLOT 220210
HRRLOT

CHICAGO AREA WEATHER ROUNDUP
NATIONAL WEATHER SERVICE CHICAGO/ROMEOVILLE IL
900 PM CDT SUN SEP 21 2014

NOTE: "FAIR" INDICATES FEW OR NO CLOUDS BELOW 12,000 FEET WITH NO
SIGNIFICANT WEATHER AND/OR OBSTRUCTIONS TO VISIBILITY.

* THESE STATIONS ARE NOT UNDER NWS QUALITY CONTROL. THEY ALSO MAY NOT
  REPORT WEATHER SUCH AS PRECIPITATION OR FOG.

ILZ005-006-012>014-019>023-220300-
NORTHEAST ILLINOIS

CITY           SKY/WX    TMP DP  RH WIND       PRES   REMARKS
OHARE          PTCLDY    58  48  69 N6        30.12R
MIDWAY         PTCLDY    58  46  64 N12       30.11R
AURORA         CLEAR     52  45  77 NW6       30.12R
LANSING*       PTCLDY    57  47  69 N9        30.11R
JOLIET*        CLEAR     55  50  82 CALM      30.12R
WAUKEGAN       CLEAR     48  44  86 NW3       30.11R
DUPAGE AIRPORT PTCLDY    52  45  77 N6        30.11R
WHEELING       CLEAR     54  46  74 CALM      30.14R
KANKAKEE*      PTCLDY    56  52  86 N5        30.12R
MORRIS*        CLEAR     54  48  80 CALM      30.11R
LEWIS AIRPORT* PTCLDY    53  51  92 NE5       30.11S
NORTHERLY IS     N/A     57  44  62 N13         N/A
$$

WIZ051-052-058>065-066-070>072-220300-
SOUTHEAST WISCONSIN

CITY           SKY/WX    TMP DP  RH WIND       PRES   REMARKS
MILWAUKEE      PTCLDY    53  41  63 N8        30.12R
KENOSHA*       CLEAR     46  44  93 NW3       30.12R
RACINE*        CLEAR     51  43  74 NW7       30.13R
BURLINGTON     CLEAR     44  43  96 CALM      30.13R
WAUKESHA       CLEAR     48  43  81 MISG      30.14
WEST BEND      CLEAR     46  41  81 CALM      30.13R
$$

INZ001>003-010>013-019-020-220300-
NORTHWEST INDIANA

CITY           SKY/WX    TMP DP  RH WIND       PRES   REMARKS
GARY*          NOT AVBL
MICHIGAN CITY* NOT AVBL
RENSSELAER*    NOT AVBL
VALPARAISO     PTCLDY    55  49  80 NW5       30.09R
$$

LMZ740>746-220300-
SOUTHERN LAKE MICHIGAN

STATION/POSITION TIME  SKY/WX   TEMP WIND        PRES    VSBY
                                AIR  DIR/SP/G
                 (UTC)          (F)  (DEG/KT/KT) (MB)    (MI)
HARRISON CRIB    0200            58  350/ 23/ 25   N/A
BURNHAM HARBOR   0200            58  330/ 14/ 19   N/A
CALUMET HARBOR   0200            58  340/ 10/ 15 1018.4R
BURNS HARBOR     NOT AVBL
MICHIGAN CITY    0200            57  350/ 22/ 26   N/A
$$

ABBREVIATIONS USED IN REMARKS
   TC - TEMPERATURE IN CELSIUS
  WCI - WIND CHILL INDEX
   HX - HEAT INDEX
  VSB - VISIBILITY
$$


USA.gov is the U.S. government's official web portal to all federal, state and local government web resources and services.